Helicity
99 109 120 122 111 98 83 68 68 106 119 180 191 146 129 181 196 198 194 198 229 238 243 254 251 229 195 161 136 163 196 207 194 113 68 13 120 165
114 110 113 116 113 105 96 88 75 78 102 123 128 155 194 206 172 154 147 161 156 153 149 144 135 143 160 172 171 147 115 119 174 200 161 84 21 93
116 112 106 102 106 106 102 96 90 71 77 125 111 119 161 185 193 158 132 132 129 108 80 56 51 55 51 59 82 101 121 129 109 118 163 192 139 58
83 79 81 93 84 90 103 95 91 77 79 85 134 150 125 115 139 167 158 116 111 104 91 79 51 19 4 11 7 15 36 57 88 119 118 134 167 166
65 65 69 76 78 89 89 98 90 89 77 72 96 110 106 104 97 102 104 107 84 57 43 37 35 27 20 -1 -23 -30 -19 13 44 62 88 105 94 137
48 50 55 64 68 85 93 84 81 86 83 78 58 71 86 86 51 84 112 75 77 54 52 51 29 21 -1 -16 -24 -40 -61 -52 -34 6 38 55 74 93
43 47 46 50 45 55 87 76 76 83 90 104 101 62 78 65 49 54 81 110 102 59 62 81 62 61 51 23 4 -28 -58 -73 -63 -35 -8 12 36 69
53 50 52 48 42 38 42 35 78 137 123 115 106 102 44 26 38 59 78 110 126 31 19 35 12 50 60 58 32 11 -19 -36 -47 -36 -18 1 18 25
43 46 53 58 52 62 53 53 67 60 54 80 71 52 58 57 46 55 73 83 109 75 32 56 29 70 56 67 29 12 7 -5 -22 -28 -35 -9 3 17
49 46 47 47 50 56 60 62 62 67 72 87 88 82 72 63 59 67 79 83 89 69 41 71 17 75 50 87 42 30 20 27 18 2 -21 -14 6 13
51 46 45 45 32 28 55 71 80 85 86 51 42 39 38 42 52 78 82 62 48 64 84 62 69 83 82 92 99 51 34 29 17 10 5 -13 14 35
52 47 27 32 12 14 54 71 76 64 58 53 60 70 78 89 67 85 85 78 71 46 65 88 73 78 72 73 57 77 112 41 7 22 16 23 11 75
59 63 56 17 19 18 25 61 68 67 83 92 112 79 49 44 56 57 73 99 91 87 92 96 87 93 144 110 97 110 111 107 102 96 38 22 43 70
51 47 43 11 3 3 33 76 69 79 72 64 55 47 47 57 58 64 63 83 96 85 76 85 129 125 122 122 119 109 110 114 123 137 117 64 49 43
37 24 -3 9 41 43 35 32 44 61 57 58 57 50 51 56 61 70 72 68 67 73 86 81 111 112 138 147 137 125 100 120 125 146 152 140 118 88
12 21 24 42 32 25 33 43 54 66 72 67 56 62 70 71 75 74 71 72 76 77 77 87 90 101 112 127 136 139 139 161 144 144 135 121 95 75
24 61 38 21 14 12 11 18 30 40 45 49 48 52 59 66 68 67 61 69 71 75 81 92 97 93 100 92 117 131 123 134 136 119 87 103 91 88
37 19 13 14 17 15 10 6 14 19 32 36 36 40 45 50 53 54 52 65 79 78 76 82 81 79 81 82 71 112 115 114 114 98 94 118 76 69
12 8 15 14 9 5 5 12 9 17 33 38 38 37 35 30 30 36 51 59 69 79 84 82 81 81 73 60 72 46 86 106 119 98 93 115 69 44
14 6 4 -2 -1 5 13 23 28 29 42 49 55 54 47 29 22 28 49 60 68 69 79 92 96 103 92 83 71 76 66 104 101 82 51 56 54 -15
2 -2 -3 0 14 37 57 68 68 68 62 68 72 80 71 47 27 33 45 33 42 66 67 71 87 34 80 87 106 96 92 57 65 79 57 32 -26 -57
3 0 2 11 31 72 83 92 84 74 74 77 79 75 65 43 42 48 54 54 71 86 90 97 84 88 79 76 73 81 47 69 55 43 7 -19 -16 -27
12 14 16 30 43 52 81 104 105 98 98 99 92 86 81 65 42 44 59 73 88 96 97 91 95 91 100 94 39 50 24 44 59 53 24 2 -15 -25
Wind_Speed
60 61 62 62 61 61 61 62 69 76 74 63 63 56 60 68 71 72 72 74 77 78 79 81 81 82 83 85 85 87 89 90 91 92 93 96 99 102
61 62 63 61 61 60 61 61 62 72 78 64 64 66 73 73 72 72 72 76 78 79 80 80 80 82 84 87 90 92 94 93 96 97 97 97 99 103
64 65 67 63 64 61 60 61 66 68 80 78 70 70 74 75 75 72 72 73 74 76 77 80 82 85 87 89 91 93 96 98 101 102 102 104 105 105
67 67 68 65 65 63 62 64 65 65 71 81 77 77 74 73 75 77 75 73 75 78 80 82 83 85 88 91 93 94 96 99 102 105 107 110 110 108
67 67 68 66 67 64 63 64 65 66 67 73 77 75 76 75 75 76 77 78 78 80 81 84 86 88 89 91 93 96 100 103 105 107 110 112 113 116
66 66 66 66 67 66 65 65 66 67 68 71 74 75 77 76 76 82 84 78 82 78 80 84 87 89 90 93 94 95 97 101 103 105 109 112 115 118
65 66 66 66 66 66 65 67 67 68 70 74 76 77 78 78 78 78 86 88 86 82 84 84 84 84 86 89 93 96 98 99 101 107 113 116 119 122
66 65 64 66 68 70 72 73 69 71 75 76 78 80 77 76 76 82 87 92 98 78 85 89 81 92 90 90 93 97 100 102 104 108 113 117 122 125
62 64 65 64 65 65 67 71 74 77 78 76 78 75 79 78 82 87 90 89 93 87 89 102 89 98 87 90 95 99 102 105 108 112 115 119 123 128
62 63 64 65 64 66 69 72 72 73 74 75 77 77 79 79 79 83 86 91 92 86 79 104 85 96 92 91 95 97 100 103 106 109 113 117 123 128
61 61 61 63 64 66 68 70 71 74 71 76 78 82 85 85 83 79 80 87 97 85 74 88 93 97 96 98 93 91 93 94 98 103 108 112 119 125
59 59 60 61 61 64 66 68 74 74 71 73 76 77 72 73 75 76 81 90 92 96 81 85 90 86 101 85 85 83 83 87 92 97 102 108 110 115
58 59 58 59 64 67 68 69 71 71 71 67 68 73 73 74 76 75 75 78 84 87 72 79 89 85 79 100 93 85 81 84 87 90 99 108 113 113
59 58 57 60 64 67 66 62 71 77 76 79 81 83 84 81 78 76 75 72 77 88 84 77 81 79 88 97 99 81 79 80 81 90 93 98 104 107
55 57 60 63 62 64 68 78 83 79 78 79 82 83 80 75 72 72 73 78 80 75 68 64 69 72 72 84 91 92 90 84 79 84 86 85 91 92
56 57 58 56 64 71 73 71 68 66 68 71 74 72 71 72 71 67 72 74 75 74 65 59 60 62 71 71 78 83 79 85 78 75 76 83 88 87
59 46 53 60 65 66 65 64 61 60 62 64 66 67 67 67 69 69 72 72 72 72 69 63 59 57 60 66 72 73 79 75 70 74 78 88 86 85
50 56 61 64 65 65 64 64 61 60 59 59 62 63 63 67 70 72 71 70 71 69 67 63 62 63 63 59 52 66 70 68 64 67 73 81 95 87
58 63 65 66 67 66 66 64 64 61 56 57 57 59 62 69 74 74 72 70 68 63 61 59 59 58 66 67 66 57 68 69 73 81 74 75 89 90
59 63 65 66 67 68 67 66 63 61 55 53 51 55 60 69 75 75 72 70 67 63 61 57 55 53 55 61 70 72 58 67 72 86 91 90 93 99
64 65 66 67 68 65 62 58 56 54 52 50 47 49 59 69 73 73 73 74 71 66 62 61 58 60 57 62 59 79 73 61 60 76 85 92 98 98
64 66 68 68 69 62 57 54 54 54 53 50 50 51 55 63 70 72 72 72 67 61 58 64 69 62 54 50 49 81 93 83 74 69 88 95 96 99
66 67 68 69 70 67 59 51 48 51 51 51 53 53 55 63 70 71 72 70 64 61 62 63 63 60 51 47 42 43 98 93 86 83 90 86 90 96
Wind_Direction
298 298 297 296 295 294 293 291 287 286 286 290 290 292 294 294 294 293 291 290 290 289 288 288 288 287 286 285 285 284 283 283 283 282 280 278 276 275
299 297 297 296 296 295 293 291 288 285 285 290 290 292 294 294 293 293 292 290 289 288 288 287 287 287 287 286 285 283 282 283 282 281 280 279 277 276
299 297 295 296 294 294 293 291 288 286 284 287 291 293 292 292 293 293 293 292 292 291 290 287 286 286 286 286 285 285 284 282 281 280 279 279 278 276
297 295 294 294 293 292 291 289 288 288 286 287 290 291 291 292 292 292 293 292 291 291 290 289 288 287 286 286 285 285 284 283 282 281 279 277 277 276
297 295 294 294 292 291 290 289 289 289 288 287 290 292 291 292 292 291 290 291 291 290 289 288 288 287 287 287 286 285 284 283 282 281 279 277 275 274
297 296 295 293 292 291 290 289 290 289 288 288 289 291 292 292 291 290 289 290 290 291 289 289 288 287 286 286 286 287 286 284 283 282 280 278 276 274
298 297 296 294 292 290 290 289 288 288 288 288 288 290 290 290 289 291 289 290 289 290 289 290 290 290 290 289 287 287 287 286 285 283 281 278 276 274
299 299 298 296 294 291 289 288 286 286 286 286 287 287 288 288 291 291 290 289 287 292 289 289 292 290 291 290 289 288 286 286 286 285 283 280 277 275
300 300 299 298 297 295 293 291 289 288 286 288 287 287 288 290 291 291 290 287 286 289 290 287 292 289 293 292 291 288 287 286 286 285 283 281 278 275
301 300 299 298 298 296 294 292 290 289 288 287 287 288 290 291 291 291 290 289 289 291 291 287 294 291 293 293 293 292 290 289 288 287 286 283 280 277
303 303 302 300 300 298 296 293 291 291 290 288 287 289 289 290 291 292 291 291 288 290 293 291 293 293 294 293 294 293 292 290 290 289 288 286 283 279
306 305 304 302 302 300 298 296 294 294 293 291 291 292 292 293 292 291 292 289 289 289 293 291 293 295 293 296 295 294 293 290 290 289 288 287 285 281
306 306 306 305 303 302 300 299 297 298 296 294 294 294 294 293 292 291 289 288 287 288 294 295 294 298 294 293 295 296 296 294 294 293 291 287 285 281
305 307 307 306 304 302 302 303 301 298 296 293 292 291 290 290 290 290 289 288 287 287 293 296 295 296 295 294 294 298 296 295 295 294 294 291 287 282
309 308 306 306 308 307 304 299 295 295 294 292 290 288 289 290 292 292 291 288 288 292 297 299 297 298 298 295 296 295 296 295 295 296 295 292 289 283
310 307 307 308 307 304 303 303 302 300 296 293 291 293 293 292 292 294 290 289 292 296 301 303 302 302 301 299 297 297 297 294 297 298 295 292 286 281
304 314 312 310 308 308 309 308 307 305 301 299 296 296 296 295 292 291 289 291 293 299 304 307 308 306 306 304 300 299 298 298 298 297 293 287 286 282
309 307 305 306 307 309 310 310 308 307 307 307 302 301 300 295 290 288 290 293 296 302 306 309 311 312 310 308 303 302 299 300 301 298 293 288 280 278
302 301 301 302 302 303 304 308 309 309 315 312 310 308 303 293 286 286 291 296 299 305 310 312 312 313 311 309 311 310 304 303 301 295 293 289 279 274
301 299 297 297 297 300 304 307 311 313 318 319 319 314 306 294 287 287 293 297 303 307 309 313 314 314 313 312 311 307 310 306 302 293 288 285 280 271
294 295 297 298 303 310 316 320 321 322 322 323 324 320 310 297 291 291 293 296 301 306 308 310 312 314 314 315 312 304 305 307 306 298 290 282 272 268
297 296 295 300 305 318 323 326 325 323 322 323 322 321 316 305 296 295 296 299 304 308 310 311 310 313 314 312 308 304 296 301 303 301 284 274 270 265
297 298 299 304 309 313 322 328 328 325 324 323 320 319 317 309 300 299 299 302 306 310 312 312 313 313 310 309 299 300 290 292 297 297 283 282 275 267